SCP
0 0 0 0 -0 -0 -0 -0 -0 0 -0 -0 -0 -0 -0 -0 -0 -0 -0 -0 -0 -0 -0 -0 -0 -0 -0 -0 -0 -0 -0 -0 -0 -0 -0 -0 -0 -0 -0 -0 -0 0 -0
-0 0 0 0 -0 -0 -0 -0 -0 -0 -0 -0 -0 -0 -0 -0 -0 -0 -0 -0 -0 -0 -0 -0 -0 -0 -0 -0 -0 -0 -0 -0 -0 -0 -0 0 -0 -0 -0 0 0 0 -0
-0 -0 0 0 -0 -0 -0 -0 -0 -0 -0 -0 -0 -0 -0 -0 -0 -0 -0 -0 0 -0 -0 -0 -0 -0 -0 -0 -0 -0 -0 -0 -0 -0 0 0 0 -0 -0 0 -0 -0 -0
0 -0 0 -0 -0 -0 -0 -0 -0 -0 -0 -0 -0 -0 -0 -0 -0 -0 -0 -0 -0 -0 -0 -0 -0 -0 -0 -0 -0 -0 -0 -0 -0 -0 0 0 0 -0 0 0 -0 -0 -0
0 0 0 -0 -0 -0 -0 -0 -0 -0 -0 -0 -0 -0 -0 -0 -0 -0 -0 -0 -0 -0 -0 -0 -0 -0 -0 -0 -0 -0 -0 -0 -0 0 0 0 0 0 -0 0 -0 -0 -0
0 0 -0 -0 -0 -0 -0 -0 -0 -0 -0 -0 -0 -0 -0 -0 -0 -0 -0 -0 -0 0 -0 -0 -0 -0 -0 -0 -0 -0 -0 -0 -0 0 0 0 0 0 0 0 -0 -0 0
-0 -0 0 -0 -0 -0 -0 -0 -0 -0 -0 -0 -0 -0 -0 -0 -0 -0 -0 -0 -0 0 0 -0 -0 -0 -0 -0 -0 -0 -0 -0 -0 -0 0 0 0 0 -0 0 -0 -0 0
-0 -0 -0 -0 -0 -0 -0 -0 -0 -0 -0 -0 -0 -0 -0 -0 -0 -0 -0 -0 -0 0 0 -0 -0 -0 -0 -0 -0 -0 -0 -0 -0 -0 0 0 -0 0 -0 -0 -0 -0 0
0 -0 0 0 -0 -0 -0 -0 -0 -0 -0 -0 -0 -0 -0 -0 -0 -0 -0 -0 -0 -0 0 0 -0 -0 -0 -0 -0 -0 -0 -0 -0 0 0 0 -0 -0 -0 0 -0 -0 -0
0 -0 -0 -0 0 0 0 -0 -0 -0 -0 -0 -0 -0 -0 -0 -0 -0 -0 -0 -0 0 0 0 -0 -0 -0 -0 0 0 0 -0 0 0 0 0 -0 0 -0 -0 -0 -0 -0
-0 0 -0 -0 -0 -0 0 -0 -0 -0 -0 -0 -0 -0 -0 -0 0 -0 -0 -0 0 0 0 0 0 0 0 -0 -0 -0 0 0 0 0 0 -0 -0 0 0 0 0 -0 -0
-0 0 -0 -0 -0 -0 -0 -0 0 0 0 0 0 0 -0 0 -0 -0 -0 -0 0 0 0 0 0 0 0 0 -0 -0 -0 -0 -0 -0 -0 -0 0 0 -0 -0 0 0 -0
0 0 -0 -0 -0 -0 -0 0 0 0 -0 -0 -0 0 0 -0 -0 -0 0 -0 -0 -0 -0 -0 -0 -0 -0 0 0 -0 -0 -0 0 -0 0 -0 -0 -0 -0 -0 0 0 0
0 0 -0 -0 -0 -0 -0 0 0 0 -0 0 0 -0 -0 0 0 0 0 -0 0 -0 -0 -0 -0 -0 0 0 0 0 0 -0 0 0 -0 -0 -0 -0 -0 -0 0 0 0
-0 -0 0 -0 0 0 0 0 0 0 0 0 -0 -0 -0 0 0 0 0 0 -0 -0 -0 -0 -0 -0 -0 -0 0 0 0 -0 -0 -0 -0 -0 -0 -0 -0 -0 0 0 0
0 0 0 0 0 0 0 0 0 0 0 -0 -0 -0 -0 0 0 0 0 0 -0 -0 -0 -0 0 -0 -0 -0 -0 0 0 0 -0 -0 0 -0 -0 -0 -0 -0 -0 0 0
0 0 0 0 0 0 0 0 0 0 -0 -0 -0 -0 -0 0 0 0 0 0 0 0 0 0 -0 -0 -0 -0 -0 -0 -0 0 0 -0 -0 -0 -0 -0 -0 -0 -0 -0 -0
0 -0 0 0 0 0 0 0 0 0 0 -0 -0 0 -0 -0 -0 0 0 0 0 0 -0 -0 -0 -0 -0 -0 -0 -0 -0 -0 -0 -0 0 0 -0 0 -0 -0 -0 -0 -0
-0 0 0 0 0 -0 0 0 0 0 0 0 0 0 -0 -0 -0 0 0 0 0 0 0 -0 -0 -0 -0 -0 -0 -0 -0 -0 -0 -0 -0 -0 0 0 0 -0 -0 -0 -0
-0 -0 -0 0 0 0 0 0 0 0 0 0 0 0 0 -0 0 0 0 0 0 0 0 0 -0 0 -0 0 -0 -0 -0 -0 -0 -0 -0 -0 -0 -0 0 0 0 -0 -0
-0 -0 -0 -0 0 0 0 0 0 0 0 0 -0 -0 -0 -0 -0 -0 0 0 0 0 -0 0 0 0 -0 -0 -0 -0 0 -0 -0 -0 -0 -0 -0 -0 -0 0 0 0 0
-0 -0 -0 -0 0 0 0 0 0 0 0 0 0 0 -0 -0 -0 -0 -0 0 0 0 0 0 0 0 0 0 -0 -0 -0 0 0 0 -0 -0 -0 -0 -0 0 0 0 0
0 -0 -0 -0 0 0 0 0 0 0 0 0 0 0 0 0 -0 0 0 -0 -0 0 0 0 0 0 0 0 0 0 0 0 0 0 0 -0 -0 -0 -0 0 0 0 0
0 0 -0 -0 -0 -0 -0 0 0 0 0 0 0 0 0 0 0 0 0 0 0 0 0 0 0 0 0 0 0 0 0 0 0 0 0 0 0 0 -0 0 0 0 0
0 0 0 0 0 0 0 0 0 0 0 -0 0 0 0 0 0 0 0 0 0 0 0 0 0 0 0 0 0 0 0 0 0 0 0 0 0 0 0 0 0 -0 0
-0 -0 0 0 -0 -0 0 0 0 -0 0 0 0 -0 -0 -0 0 0 0 0 0 0 0 0 0 0 0 0 0 0 0 0 0 0 0 0 0 0 0 0 0 0 0
Wind_Speed_500mb
37 44 45 48 48 42 39 35 37 39 39 36 35 34 36 33 29 27 25 20 21 22 21 25 25 21 22 20 25 25 21 21 21 23 22 20 20 19 20 20 18 18 19
43 48 46 46 46 40 41 42 43 41 39 35 31 33 33 30 28 23 18 21 25 26 24 26 25 22 21 24 24 25 24 22 22 22 22 22 20 19 19 19 19 19 20
46 49 45 43 45 44 46 46 42 38 34 35 36 35 33 30 27 21 19 22 26 25 26 27 27 27 25 26 26 28 28 25 21 19 16 18 19 16 17 19 20 19 19
46 46 45 43 45 46 46 44 42 41 38 38 37 34 31 27 24 22 22 21 25 25 25 26 25 26 27 28 28 28 28 25 19 19 15 15 15 13 17 19 19 18 19
46 45 44 42 42 45 45 42 39 37 35 34 33 31 28 28 21 22 21 21 22 25 26 26 27 26 28 28 28 26 22 20 18 17 13 9 5 13 14 16 17 17 18
45 42 40 41 43 42 41 37 32 31 28 27 27 24 23 21 21 21 20 19 22 26 28 26 24 26 26 25 23 22 19 15 11 12 14 11 5 7 12 13 14 16 17
44 41 40 41 40 39 35 32 29 27 26 24 22 19 17 16 17 18 21 20 21 23 25 24 22 23 27 26 22 16 11 8 4 6 5 7 4 7 11 13 14 15 17
41 41 42 39 38 33 30 24 25 25 26 23 21 17 15 17 16 17 20 21 21 21 23 23 22 20 22 24 20 10 5 5 5 4 5 5 5 5 8 11 14 15 16
37 41 39 37 33 30 27 24 22 24 24 23 23 18 15 14 16 17 19 19 20 18 18 19 23 24 23 23 20 13 7 5 4 7 15 14 15 12 12 15 16 17 18
35 36 34 33 31 29 25 23 21 23 24 24 25 15 11 15 18 14 14 16 20 22 19 18 20 20 23 24 22 19 16 14 14 13 24 23 24 19 18 16 17 20 19
36 34 29 26 26 25 22 20 22 22 22 24 22 13 8 14 15 17 13 17 20 22 21 18 18 18 19 18 19 20 18 18 21 26 29 35 35 30 25 24 21 21 22
39 35 30 26 22 22 21 21 23 25 24 24 24 12 5 11 14 25 24 24 27 26 24 22 20 19 17 16 18 19 16 16 25 27 33 39 37 32 31 28 27 26 26
26 31 32 29 26 25 26 23 25 24 22 24 26 17 7 11 12 16 27 30 29 29 27 25 24 22 21 21 22 22 17 14 16 24 23 29 30 33 35 35 31 32 33
29 23 24 26 31 26 20 21 21 26 26 27 28 25 21 17 19 18 21 32 37 33 31 30 27 26 27 25 28 28 25 24 23 9 12 9 26 32 32 35 31 35 39
35 30 26 25 29 26 11 9 25 30 26 27 27 25 25 21 18 24 24 32 38 42 38 35 34 36 37 37 36 34 33 26 21 17 13 14 17 24 28 26 29 33 40
35 36 33 29 28 27 24 15 3 18 17 25 27 25 22 22 20 22 25 21 26 36 42 42 38 36 38 42 43 41 35 34 26 23 19 16 10 20 27 27 25 30 37
36 34 38 31 34 35 35 26 18 13 16 22 21 21 20 22 23 22 23 29 29 31 34 34 34 34 37 38 41 41 42 38 31 27 22 20 18 20 21 28 23 26 34
41 37 36 40 39 38 35 31 26 26 27 23 18 19 19 23 25 27 27 24 23 29 32 36 37 38 39 35 40 43 43 45 44 37 30 29 26 24 28 26 24 26 28
43 40 37 37 37 36 31 29 27 29 29 25 25 23 22 23 23 25 24 21 25 30 32 32 33 38 37 33 37 39 43 47 51 46 39 40 33 32 33 32 27 28 28
44 41 39 35 35 39 34 35 38 38 30 27 27 21 19 24 28 28 26 24 30 33 32 30 33 28 32 28 32 36 39 43 49 56 51 49 42 36 31 29 30 31 31
48 48 45 42 33 43 44 44 42 28 19 23 25 25 19 20 26 29 25 27 26 28 23 27 29 32 32 24 27 32 28 30 38 45 48 51 49 43 36 34 38 37 36
48 44 42 48 39 38 50 51 47 42 36 31 25 22 29 29 28 33 30 20 23 24 23 24 24 27 30 26 26 23 22 30 37 44 48 49 50 46 43 39 39 43 40
60 41 41 33 42 30 37 50 51 52 44 36 30 30 22 24 26 28 25 23 25 21 22 23 27 28 26 29 31 26 11 11 14 12 19 34 48 53 49 45 39 40 42
62 52 39 29 23 26 26 43 50 45 39 30 35 35 32 30 29 23 22 23 27 26 26 23 25 28 30 31 31 33 36 39 23 15 9 10 25 41 48 48 50 46 46
57 60 53 43 40 25 21 31 36 35 32 30 33 33 31 27 29 22 19 22 24 22 27 28 24 28 31 33 31 34 36 36 39 43 46 33 30 27 22 28 36 40 43
27 44 55 63 54 42 30 35 27 27 30 36 33 29 24 20 18 18 24 24 21 26 26 24 25 32 29 32 32 38 42 38 38 38 42 42 41 37 39 35 37 43 37
Wind_Direction_500mb
132 128 134 141 139 137 143 144 136 135 131 130 129 131 130 133 130 133 129 126 130 127 121 125 117 115 117 110 110 110 106 110 119 124 124 124 130 135 138 146 147 146 138
135 134 135 140 144 142 141 139 133 129 127 129 131 134 129 129 132 132 125 120 116 114 109 119 123 123 119 112 111 110 111 113 119 123 125 122 120 124 136 133 136 133 140
139 138 139 143 144 144 140 133 131 130 131 131 131 132 129 133 140 136 123 122 125 123 122 117 122 120 115 110 108 108 108 108 113 119 127 133 127 127 130 132 133 136 135
143 144 143 146 148 146 143 140 135 135 133 133 137 137 135 135 136 133 131 129 131 133 133 127 123 122 120 117 117 117 113 104 108 108 117 128 130 130 129 137 133 137 132
146 144 145 146 149 149 151 144 140 136 135 137 139 140 140 136 138 137 141 134 141 141 141 137 133 127 131 126 125 133 125 123 115 110 111 119 125 131 142 145 147 147 143
148 148 146 146 149 151 153 152 147 143 143 146 144 142 138 140 139 147 150 147 145 143 141 139 137 138 139 136 133 128 128 140 134 110 96 98 132 165 163 160 149 153 153
149 151 149 149 152 152 153 152 149 146 148 146 143 139 139 146 146 159 158 155 154 153 149 146 148 145 147 142 139 138 108 95 149 141 72 44 83 168 171 169 165 157 157
153 153 152 152 153 153 156 162 162 162 157 150 147 143 141 145 143 172 171 163 159 156 156 152 150 150 155 155 149 147 112 121 89 227 239 271 253 220 198 185 186 178 167
157 159 156 156 159 166 164 165 165 166 159 158 154 144 138 152 157 169 171 171 168 162 166 165 160 155 163 171 176 184 219 256 277 211 239 246 260 227 220 225 215 197 184
166 169 168 169 171 171 174 176 172 168 166 165 159 152 160 157 158 160 182 200 196 188 185 174 172 175 176 186 204 213 229 249 258 237 237 252 246 238 233 236 226 209 198
180 184 186 185 180 180 182 176 171 168 168 169 171 170 204 227 222 225 238 236 221 207 197 194 195 193 198 202 210 216 204 240 265 275 269 255 251 245 239 227 228 225 211
183 187 196 192 193 197 194 188 182 187 184 183 186 196 234 224 240 252 252 230 216 213 207 203 204 205 209 210 221 225 228 257 254 271 279 242 248 231 233 232 228 227 227
181 194 197 202 205 207 205 195 191 194 196 196 204 213 217 227 248 260 237 226 218 213 212 213 212 215 218 223 235 234 243 280 306 256 289 239 235 235 240 235 238 234 228
177 173 186 198 209 205 208 217 222 209 202 202 212 226 238 277 257 250 249 235 227 224 222 221 225 231 238 237 240 242 256 277 274 301 316 263 230 237 231 226 239 236 228
199 195 190 194 200 202 169 237 240 223 227 215 214 229 241 258 263 240 247 234 231 227 232 236 245 247 248 246 245 248 254 265 264 276 297 314 253 236 231 239 239 234 227
209 212 207 212 214 216 230 257 199 227 249 236 240 237 243 247 248 246 232 231 229 230 237 245 249 249 250 248 245 248 253 254 261 266 273 273 302 252 243 243 240 231 225
214 219 220 224 228 235 243 258 265 272 259 242 241 240 239 243 246 252 242 237 233 236 239 241 247 252 251 249 249 250 248 251 256 261 263 261 246 274 249 244 239 232 225
217 220 228 231 235 242 248 257 270 270 267 253 243 242 241 239 240 245 250 249 248 246 251 252 250 254 258 260 258 251 249 247 247 250 252 249 260 273 261 259 253 243 229
221 226 227 233 241 243 254 257 259 262 258 259 253 248 244 243 239 245 252 256 249 250 252 249 260 255 260 264 268 259 251 249 240 242 248 246 251 260 265 253 250 247 243
229 236 241 243 248 242 252 256 248 247 244 252 258 269 252 252 248 250 257 262 256 250 253 252 248 258 260 262 264 262 255 249 243 237 247 245 245 250 257 245 246 250 244
224 233 238 242 251 247 253 254 254 264 265 264 269 274 294 279 276 266 258 255 261 261 259 250 247 241 252 250 263 264 264 256 244 240 246 242 242 243 246 251 256 253 247
222 229 235 241 244 250 253 258 267 276 287 284 281 283 272 269 278 271 263 251 255 265 262 256 255 253 250 244 254 275 281 262 261 258 251 243 239 242 250 254 264 252 249
221 225 236 232 241 254 264 259 262 266 276 297 317 314 297 288 283 273 266 261 262 266 273 264 258 261 258 250 251 248 249 254 308 282 264 244 239 243 250 255 255 253 252
224 230 236 239 234 248 265 269 264 267 285 304 311 307 306 299 305 298 307 290 275 272 272 276 261 264 260 257 258 247 246 253 272 292 258 256 239 245 252 250 253 255 257
228 233 242 248 241 251 265 276 268 272 303 313 306 303 298 300 298 306 306 298 291 292 286 273 265 261 264 261 259 264 261 263 263 263 279 279 270 264 251 255 262 255 259
271 257 247 244 245 251 265 282 280 286 292 286 291 307 316 319 319 317 314 318 296 293 296 280 276 267 265 259 250 251 260 260 266 265 263 277 284 273 262 268 269 264 258
Wind_Speed_850mb
37 44 45 48 48 42 39 35 37 39 39 36 35 34 36 33 29 27 25 20 21 22 21 25 25 21 22 20 25 25 21 21 21 23 22 20 20 19 20 20 18 18 19
43 48 46 46 46 40 41 42 43 41 39 35 31 33 33 30 28 23 18 21 25 26 24 26 25 22 21 24 24 25 24 22 22 22 22 22 20 19 19 19 19 19 20
46 49 45 43 45 44 46 46 42 38 34 35 36 35 33 30 27 21 19 22 26 25 26 27 27 27 25 26 26 28 28 25 21 19 16 18 19 16 17 19 20 19 19
46 46 45 43 45 46 46 44 42 41 38 38 37 34 31 27 24 22 22 21 25 25 25 26 25 26 27 28 28 28 28 25 19 19 15 15 15 13 17 19 19 18 19
46 45 44 42 42 45 45 42 39 37 35 34 33 31 28 28 21 22 21 21 22 25 26 26 27 26 28 28 28 26 22 20 18 17 13 9 5 13 14 16 17 17 18
45 42 40 41 43 42 41 37 32 31 28 27 27 24 23 21 21 21 20 19 22 26 28 26 24 26 26 25 23 22 19 15 11 12 14 11 5 7 12 13 14 16 17
44 41 40 41 40 39 35 32 29 27 26 24 22 19 17 16 17 18 21 20 21 23 25 24 22 23 27 26 22 16 11 8 4 6 5 7 4 7 11 13 14 15 17
41 41 42 39 38 33 30 24 25 25 26 23 21 17 15 17 16 17 20 21 21 21 23 23 22 20 22 24 20 10 5 5 5 4 5 5 5 5 8 11 14 15 16
37 41 39 37 33 30 27 24 22 24 24 23 23 18 15 14 16 17 19 19 20 18 18 19 23 24 23 23 20 13 7 5 4 7 15 14 15 12 12 15 16 17 18
35 36 34 33 31 29 25 23 21 23 24 24 25 15 11 15 18 14 14 16 20 22 19 18 20 20 23 24 22 19 16 14 14 13 24 23 24 19 18 16 17 20 19
36 34 29 26 26 25 22 20 22 22 22 24 22 13 8 14 15 17 13 17 20 22 21 18 18 18 19 18 19 20 18 18 21 26 29 35 35 30 25 24 21 21 22
39 35 30 26 22 22 21 21 23 25 24 24 24 12 5 11 14 25 24 24 27 26 24 22 20 19 17 16 18 19 16 16 25 27 33 39 37 32 31 28 27 26 26
26 31 32 29 26 25 26 23 25 24 22 24 26 17 7 11 12 16 27 30 29 29 27 25 24 22 21 21 22 22 17 14 16 24 23 29 30 33 35 35 31 32 33
29 23 24 26 31 26 20 21 21 26 26 27 28 25 21 17 19 18 21 32 37 33 31 30 27 26 27 25 28 28 25 24 23 9 12 9 26 32 32 35 31 35 39
35 30 26 25 29 26 11 9 25 30 26 27 27 25 25 21 18 24 24 32 38 42 38 35 34 36 37 37 36 34 33 26 21 17 13 14 17 24 28 26 29 33 40
35 36 33 29 28 27 24 15 3 18 17 25 27 25 22 22 20 22 25 21 26 36 42 42 38 36 38 42 43 41 35 34 26 23 19 16 10 20 27 27 25 30 37
36 34 38 31 34 35 35 26 18 13 16 22 21 21 20 22 23 22 23 29 29 31 34 34 34 34 37 38 41 41 42 38 31 27 22 20 18 20 21 28 23 26 34
41 37 36 40 39 38 35 31 26 26 27 23 18 19 19 23 25 27 27 24 23 29 32 36 37 38 39 35 40 43 43 45 44 37 30 29 26 24 28 26 24 26 28
43 40 37 37 37 36 31 29 27 29 29 25 25 23 22 23 23 25 24 21 25 30 32 32 33 38 37 33 37 39 43 47 51 46 39 40 33 32 33 32 27 28 28
44 41 39 35 35 39 34 35 38 38 30 27 27 21 19 24 28 28 26 24 30 33 32 30 33 28 32 28 32 36 39 43 49 56 51 49 42 36 31 29 30 31 31
48 48 45 42 33 43 44 44 42 28 19 23 25 25 19 20 26 29 25 27 26 28 23 27 29 32 32 24 27 32 28 30 38 45 48 51 49 43 36 34 38 37 36
48 44 42 48 39 38 50 51 47 42 36 31 25 22 29 29 28 33 30 20 23 24 23 24 24 27 30 26 26 23 22 30 37 44 48 49 50 46 43 39 39 43 40
60 41 41 33 42 30 37 50 51 52 44 36 30 30 22 24 26 28 25 23 25 21 22 23 27 28 26 29 31 26 11 11 14 12 19 34 48 53 49 45 39 40 42
62 52 39 29 23 26 26 43 50 45 39 30 35 35 32 30 29 23 22 23 27 26 26 23 25 28 30 31 31 33 36 39 23 15 9 10 25 41 48 48 50 46 46
57 60 53 43 40 25 21 31 36 35 32 30 33 33 31 27 29 22 19 22 24 22 27 28 24 28 31 33 31 34 36 36 39 43 46 33 30 27 22 28 36 40 43
27 44 55 63 54 42 30 35 27 27 30 36 33 29 24 20 18 18 24 24 21 26 26 24 25 32 29 32 32 38 42 38 38 38 42 42 41 37 39 35 37 43 37
Wind_Direction_850mb
132 128 134 141 139 137 143 144 136 135 131 130 129 131 130 133 130 133 129 126 130 127 121 125 117 115 117 110 110 110 106 110 119 124 124 124 130 135 138 146 147 146 138
135 134 135 140 144 142 141 139 133 129 127 129 131 134 129 129 132 132 125 120 116 114 109 119 123 123 119 112 111 110 111 113 119 123 125 122 120 124 136 133 136 133 140
139 138 139 143 144 144 140 133 131 130 131 131 131 132 129 133 140 136 123 122 125 123 122 117 122 120 115 110 108 108 108 108 113 119 127 133 127 127 130 132 133 136 135
143 144 143 146 148 146 143 140 135 135 133 133 137 137 135 135 136 133 131 129 131 133 133 127 123 122 120 117 117 117 113 104 108 108 117 128 130 130 129 137 133 137 132
146 144 145 146 149 149 151 144 140 136 135 137 139 140 140 136 138 137 141 134 141 141 141 137 133 127 131 126 125 133 125 123 115 110 111 119 125 131 142 145 147 147 143
148 148 146 146 149 151 153 152 147 143 143 146 144 142 138 140 139 147 150 147 145 143 141 139 137 138 139 136 133 128 128 140 134 110 96 98 132 165 163 160 149 153 153
149 151 149 149 152 152 153 152 149 146 148 146 143 139 139 146 146 159 158 155 154 153 149 146 148 145 147 142 139 138 108 95 149 141 72 44 83 168 171 169 165 157 157
153 153 152 152 153 153 156 162 162 162 157 150 147 143 141 145 143 172 171 163 159 156 156 152 150 150 155 155 149 147 112 121 89 227 239 271 253 220 198 185 186 178 167
157 159 156 156 159 166 164 165 165 166 159 158 154 144 138 152 157 169 171 171 168 162 166 165 160 155 163 171 176 184 219 256 277 211 239 246 260 227 220 225 215 197 184
166 169 168 169 171 171 174 176 172 168 166 165 159 152 160 157 158 160 182 200 196 188 185 174 172 175 176 186 204 213 229 249 258 237 237 252 246 238 233 236 226 209 198
180 184 186 185 180 180 182 176 171 168 168 169 171 170 204 227 222 225 238 236 221 207 197 194 195 193 198 202 210 216 204 240 265 275 269 255 251 245 239 227 228 225 211
183 187 196 192 193 197 194 188 182 187 184 183 186 196 234 224 240 252 252 230 216 213 207 203 204 205 209 210 221 225 228 257 254 271 279 242 248 231 233 232 228 227 227
181 194 197 202 205 207 205 195 191 194 196 196 204 213 217 227 248 260 237 226 218 213 212 213 212 215 218 223 235 234 243 280 306 256 289 239 235 235 240 235 238 234 228
177 173 186 198 209 205 208 217 222 209 202 202 212 226 238 277 257 250 249 235 227 224 222 221 225 231 238 237 240 242 256 277 274 301 316 263 230 237 231 226 239 236 228
199 195 190 194 200 202 169 237 240 223 227 215 214 229 241 258 263 240 247 234 231 227 232 236 245 247 248 246 245 248 254 265 264 276 297 314 253 236 231 239 239 234 227
209 212 207 212 214 216 230 257 199 227 249 236 240 237 243 247 248 246 232 231 229 230 237 245 249 249 250 248 245 248 253 254 261 266 273 273 302 252 243 243 240 231 225
214 219 220 224 228 235 243 258 265 272 259 242 241 240 239 243 246 252 242 237 233 236 239 241 247 252 251 249 249 250 248 251 256 261 263 261 246 274 249 244 239 232 225
217 220 228 231 235 242 248 257 270 270 267 253 243 242 241 239 240 245 250 249 248 246 251 252 250 254 258 260 258 251 249 247 247 250 252 249 260 273 261 259 253 243 229
221 226 227 233 241 243 254 257 259 262 258 259 253 248 244 243 239 245 252 256 249 250 252 249 260 255 260 264 268 259 251 249 240 242 248 246 251 260 265 253 250 247 243
229 236 241 243 248 242 252 256 248 247 244 252 258 269 252 252 248 250 257 262 256 250 253 252 248 258 260 262 264 262 255 249 243 237 247 245 245 250 257 245 246 250 244
224 233 238 242 251 247 253 254 254 264 265 264 269 274 294 279 276 266 258 255 261 261 259 250 247 241 252 250 263 264 264 256 244 240 246 242 242 243 246 251 256 253 247
222 229 235 241 244 250 253 258 267 276 287 284 281 283 272 269 278 271 263 251 255 265 262 256 255 253 250 244 254 275 281 262 261 258 251 243 239 242 250 254 264 252 249
221 225 236 232 241 254 264 259 262 266 276 297 317 314 297 288 283 273 266 261 262 266 273 264 258 261 258 250 251 248 249 254 308 282 264 244 239 243 250 255 255 253 252
224 230 236 239 234 248 265 269 264 267 285 304 311 307 306 299 305 298 307 290 275 272 272 276 261 264 260 257 258 247 246 253 272 292 258 256 239 245 252 250 253 255 257
228 233 242 248 241 251 265 276 268 272 303 313 306 303 298 300 298 306 306 298 291 292 286 273 265 261 264 261 259 264 261 263 263 263 279 279 270 264 251 255 262 255 259
271 257 247 244 245 251 265 282 280 286 292 286 291 307 316 319 319 317 314 318 296 293 296 280 276 267 265 259 250 251 260 260 266 265 263 277 284 273 262 268 269 264 258